RH
88 88 88 91 92 83 81 96 99 100 100 99 98 85 67 54 95 62 66 86 92 100 92 93 82 69 85 85 75 59 70 60 59 74 84 90 89 86 91 85 83 88 73 72 73 85 85
100 90 87 94 94 90 82 78 88 100 100 100 97 97 72 57 60 65 53 57 93 98 96 89 84 78 96 94 67 71 66 67 61 74 79 95 85 93 85 88 83 73 76 69 81 91 93
97 95 92 90 91 96 81 80 78 93 100 100 100 100 81 57 54 86 54 45 73 99 99 90 74 96 94 68 68 68 68 69 66 75 80 82 86 98 83 85 69 66 80 72 78 87 86
100 100 99 96 96 89 86 82 83 85 99 100 100 100 91 61 57 50 51 45 44 56 51 54 79 96 86 75 80 74 70 71 69 83 85 77 90 98 96 86 88 78 84 95 92 81 89
99 100 99 99 99 95 80 76 82 92 93 99 100 100 97 72 58 42 40 44 44 47 49 60 90 85 90 80 81 77 87 82 76 85 87 84 97 94 97 92 96 80 98 99 95 80 83
100 99 99 97 95 92 82 66 70 74 85 92 100 100 99 76 55 38 40 50 47 58 58 73 90 99 85 84 83 93 91 88 84 91 88 91 90 89 89 93 91 96 99 100 93 94 86
97 100 99 97 99 96 75 52 44 59 75 78 93 100 100 69 50 41 53 68 70 82 72 63 66 70 73 79 77 88 84 84 91 91 91 85 93 98 88 92 88 81 72 99 92 84 87
94 99 97 98 98 99 94 70 50 63 90 97 75 100 100 79 46 54 53 67 61 58 58 58 64 70 75 81 64 80 90 91 93 92 86 87 88 74 76 81 93 79 84 96 92 83 84
96 98 98 99 99 94 97 95 68 54 62 91 91 100 100 81 46 74 58 61 57 52 76 68 67 71 72 77 76 88 94 96 90 84 88 86 94 72 77 84 94 71 74 85 82 86 85
99 100 100 100 100 98 98 99 88 65 58 85 99 100 100 73 67 76 61 66 50 56 88 67 72 70 75 75 81 90 90 97 84 79 80 94 85 84 87 87 88 88 66 69 82 90 100
100 97 97 98 100 100 100 100 94 77 82 75 99 100 100 76 88 81 69 65 48 72 87 48 68 69 76 74 72 79 90 100 88 89 83 97 90 92 98 92 71 77 68 78 84 97 98
94 95 98 100 99 89 86 93 94 78 82 82 99 100 100 73 85 74 77 54 70 85 83 78 68 73 77 77 78 72 92 94 78 83 87 90 86 83 84 76 70 63 78 88 86 92 98
92 88 89 95 88 85 95 87 90 92 66 80 99 100 99 69 68 78 69 77 87 93 61 79 81 73 71 70 68 72 72 83 89 97 99 87 84 77 76 76 70 74 81 98 97 94 95
90 86 86 88 89 87 87 78 72 87 64 76 99 100 94 74 89 76 72 78 93 68 84 58 66 68 70 70 61 66 74 77 77 80 93 98 95 88 77 82 91 82 76 87 90 86 68
90 87 87 84 87 86 85 86 90 88 82 76 91 100 94 94 99 69 78 94 77 77 65 70 66 74 76 72 73 68 72 73 69 74 77 92 97 74 77 73 66 93 86 50 65 62 77
88 85 82 84 83 88 87 88 93 94 91 79 85 99 98 96 100 87 86 83 81 65 56 62 78 69 79 79 75 73 69 67 64 70 66 72 92 79 75 67 66 55 49 66 80 73 62
90 92 96 91 86 83 84 89 93 96 98 100 100 100 97 100 100 91 96 88 71 61 53 61 74 76 72 81 71 68 68 65 61 66 58 67 75 78 68 82 84 66 64 69 68 74 72
80 94 96 98 89 88 87 93 95 91 94 99 100 100 99 100 99 94 96 74 60 64 62 56 61 64 75 76 70 66 71 63 62 57 67 66 82 99 83 67 64 69 64 62 74 68 83
87 96 98 97 97 79 82 86 93 96 88 100 100 99 100 100 99 98 70 70 66 70 67 64 61 59 57 68 67 68 70 66 61 63 62 58 83 93 79 66 62 71 68 64 69 75 80
88 92 97 93 96 91 81 88 98 93 91 100 99 100 100 100 99 82 80 76 80 66 65 59 56 52 59 64 62 68 78 72 64 63 60 58 76 69 86 64 71 78 73 69 70 88 75
94 98 96 95 99 98 88 98 91 90 100 100 99 99 99 99 98 93 74 70 61 82 61 52 54 55 70 83 69 69 74 72 70 65 68 66 83 78 67 66 73 72 70 78 79 69 71
99 98 99 99 91 100 89 97 86 99 100 100 98 98 100 98 83 94 89 81 70 73 64 62 65 58 57 73 68 80 67 70 70 72 70 76 95 72 79 70 67 66 65 70 75 71 68
99 98 99 97 97 97 94 90 95 99 100 99 100 100 95 93 84 88 88 77 68 68 65 54 56 68 65 62 57 56 56 60 65 76 80 75 86 85 86 76 66 71 64 66 72 69 70
98 97 97 99 100 93 89 98 98 98 100 100 99 92 95 93 85 81 78 77 69 64 76 75 57 65 58 58 58 58 64 68 70 73 71 80 80 89 94 77 90 56 45 52 64 61 59
97 100 97 100 90 90 100 96 100 100 100 100 98 89 77 95 84 76 75 73 77 79 85 80 75 69 55 65 91 86 89 76 66 68 70 72 87 97 94 96 70 57 49 48 56 64 72
90 96 97 92 87 94 95 100 100 97 100 100 95 74 60 81 86 79 79 76 84 90 87 89 84 69 58 75 81 92 96 81 87 73 71 83 80 85 95 95 86 55 49 47 48 68 72
90 91 83 88 85 95 94 100 100 96 99 98 94 64 58 79 87 78 83 77 74 80 95 89 80 72 65 85 85 82 87 72 93 92 89 86 90 96 94 96 80 57 51 43 60 53 72
97 87 85 87 92 81 91 100 98 97 98 97 89 66 59 79 90 78 71 68 77 70 88 83 75 73 84 79 79 85 81 82 80 76 82 81 74 81 89 96 85 52 54 53 50 70 66
90 84 88 89 90 94 94 100 97 100 99 97 68 61 62 63 88 84 81 78 74 67 76 86 72 83 76 92 86 88 79 76 80 84 74 80 75 84 81 76 60 59 58 58 62 62 61
Wind_Speed
26 25 25 26 28 28 27 28 28 33 34 23 22 22 23 21 19 20 16 15 15 17 9 13 12 10 13 6 16 13 9 13 14 10 8 9 8 5 9 10 12 14 9 16 16 10 7
30 28 27 25 25 29 32 31 29 30 34 26 23 23 24 20 20 19 18 17 14 15 11 12 10 11 11 7 3 7 10 12 11 8 8 11 6 17 11 14 14 16 6 15 18 18 8
28 28 30 30 28 26 31 33 29 31 34 29 26 25 22 19 20 21 20 16 10 13 10 10 7 10 12 18 7 10 13 13 13 10 8 10 12 6 6 2 13 12 10 3 18 12 7
28 28 28 29 31 31 28 29 31 26 29 40 36 30 20 20 19 21 20 14 10 7 4 5 5 8 9 12 11 10 11 14 10 10 13 11 9 11 5 4 4 9 4 5 11 11 6
28 29 29 29 29 30 32 31 30 34 30 37 42 34 19 18 18 20 14 9 5 3 3 5 6 4 8 9 12 17 15 11 10 9 8 6 8 6 7 4 5 5 6 2 1 1 5
29 30 30 30 29 30 30 33 34 31 39 34 30 31 21 15 18 16 11 4 3 2 2 4 5 5 6 10 13 10 7 13 10 10 2 4 3 4 3 3 5 6 8 4 10 3 6
31 31 31 32 30 32 31 29 30 35 31 38 32 37 21 14 16 14 5 4 3 1 8 5 2 5 11 10 7 9 4 2 8 5 1 3 1 3 1 2 4 3 10 3 10 10 6
30 30 31 31 31 32 32 32 32 29 27 33 29 33 22 11 14 9 6 5 4 2 6 6 6 13 11 5 3 4 2 3 1 1 1 2 2 3 5 6 5 9 15 11 8 7 2
31 33 32 32 33 32 33 35 30 34 27 28 23 28 22 7 11 7 7 6 4 2 1 3 4 6 4 1 2 6 5 3 3 2 3 2 3 3 5 7 5 4 8 7 8 5 3
32 31 33 35 34 34 34 34 34 34 31 24 20 28 23 6 8 10 8 8 5 3 4 3 2 2 2 1 1 4 6 4 1 4 3 4 3 2 6 6 4 3 5 14 12 7 2
33 33 34 35 37 37 36 34 36 35 33 26 20 28 23 8 6 11 6 8 7 4 3 2 2 1 1 0 5 5 3 5 3 4 3 2 1 5 2 8 8 5 10 10 11 7 2
31 32 33 32 34 39 35 37 36 36 33 28 27 27 21 12 17 12 10 10 9 5 5 1 3 2 0 2 2 4 2 2 4 5 5 3 1 3 3 3 1 11 15 10 8 3 1
31 32 32 34 35 37 37 38 36 38 34 20 29 27 23 13 15 16 14 11 5 3 3 3 4 3 2 1 2 1 3 2 2 3 5 5 2 2 3 3 15 8 3 2 3 2 2
32 32 32 34 34 35 38 39 42 39 41 24 29 28 20 16 14 18 20 3 3 3 5 3 4 3 3 2 1 2 1 2 4 4 4 3 3 6 9 3 8 5 1 3 4 2 1
33 33 34 34 35 36 37 40 43 42 40 32 24 23 18 22 21 23 11 3 7 6 6 7 4 3 1 0 1 2 1 1 1 1 4 4 4 3 2 2 2 2 2 1 6 2 3
34 36 35 34 35 37 40 40 40 38 47 16 21 21 24 25 22 23 2 4 4 4 4 6 5 4 4 3 1 2 0 1 2 0 1 3 4 3 4 3 5 2 5 2 3 3 2
34 35 35 34 37 39 41 38 37 34 29 4 12 11 22 25 23 13 3 6 4 7 4 6 6 4 4 5 4 1 3 2 1 2 3 3 3 4 2 5 2 4 3 6 4 3 3
35 36 37 35 37 38 37 35 34 34 38 16 7 2 25 30 8 5 4 6 4 5 3 2 5 3 5 5 4 3 3 1 3 1 3 2 4 3 0 3 0 2 3 3 4 2 2
37 38 38 36 36 36 36 35 33 33 35 21 7 3 29 31 4 4 2 2 3 5 5 4 4 4 4 6 4 2 3 3 3 3 2 2 2 3 6 5 4 3 2 4 5 3 2
37 37 38 36 36 39 34 34 31 39 28 27 10 3 6 20 7 5 5 5 6 6 4 4 3 3 4 4 1 6 3 2 3 4 5 4 3 4 6 4 2 1 2 4 4 3 3
37 39 38 36 35 37 35 33 35 38 20 18 12 5 5 5 9 3 4 5 12 5 2 7 1 3 6 3 2 3 4 3 4 1 3 3 3 2 3 3 3 2 3 4 4 4 4
39 37 37 36 36 35 34 33 40 30 14 26 10 5 6 2 14 7 3 5 11 4 5 3 6 4 4 6 5 6 5 3 2 3 3 3 2 2 2 3 3 1 3 3 3 2 5
38 38 36 36 35 34 32 35 36 26 13 16 12 9 10 4 6 10 5 4 10 7 4 10 6 4 5 4 5 11 5 6 5 6 3 2 4 3 2 3 4 4 4 6 5 4 5
37 37 36 34 36 34 32 35 36 19 24 13 14 16 5 3 5 10 10 5 8 5 6 2 10 5 6 20 21 15 16 13 7 4 4 4 3 2 1 3 2 4 3 3 5 1 3
36 38 36 36 35 32 33 35 19 17 38 12 18 7 2 2 3 5 6 4 13 14 5 5 3 8 19 8 5 4 4 3 3 4 3 2 4 2 3 2 5 2 3 5 5 3 2
35 36 35 34 33 29 37 29 16 11 36 23 17 5 1 3 1 1 3 5 4 4 3 4 8 14 4 3 3 3 4 3 3 2 5 4 6 3 1 3 4 5 3 1 3 4 2
34 34 34 33 31 30 32 20 2 16 34 25 11 4 1 6 5 3 2 4 8 7 4 4 4 3 3 2 3 3 2 4 4 6 3 2 2 2 2 1 6 6 4 3 4 5 7
32 33 33 31 30 32 20 5 13 21 38 27 8 4 2 6 10 4 4 4 6 8 5 7 5 2 3 3 2 2 3 5 3 5 5 5 5 3 3 2 7 4 3 5 4 10 11
31 31 29 26 30 22 12 9 13 22 38 33 5 8 4 6 10 15 14 11 10 8 12 7 3 4 4 4 1 3 2 1 4 3 0 3 6 4 7 5 2 4 4 3 9 11 9
Wind_Direction
294 298 305 310 306 306 308 317 316 320 296 295 303 308 310 313 301 312 309 296 297 296 255 292 310 296 312 278 262 281 297 309 319 305 287 247 215 229 202 227 214 221 206 203 188 347 13
300 295 296 303 305 302 302 305 314 322 324 285 303 301 307 310 309 314 314 305 282 288 252 268 292 297 303 274 271 255 286 307 320 313 283 238 219 229 219 229 200 202 220 188 206 262 46
331 317 301 293 294 303 301 303 306 317 305 290 293 289 302 307 313 311 313 312 287 280 259 254 271 299 288 273 287 268 287 297 306 312 294 263 234 313 263 209 192 208 186 262 217 233 32
344 343 340 324 304 291 295 301 300 311 316 311 292 291 296 307 312 317 309 306 285 274 262 256 276 277 267 296 286 284 269 289 295 300 296 262 236 260 255 259 137 154 99 138 271 161 50
344 340 342 338 336 323 293 291 299 298 295 320 287 284 289 308 308 315 310 298 279 251 255 243 270 267 275 297 292 299 265 269 301 296 297 231 236 207 197 177 114 173 122 131 183 106 100
344 343 341 341 340 338 330 293 286 292 298 306 291 276 285 305 307 311 302 269 245 229 235 235 252 304 266 314 319 324 248 250 277 312 265 224 222 357 24 65 154 158 106 274 108 109 162
340 342 343 343 342 343 339 328 303 290 295 300 309 274 284 303 306 300 266 183 158 125 229 233 229 261 308 324 13 37 96 195 271 284 277 273 30 94 109 145 20 246 169 94 95 76 107
338 340 342 342 344 342 341 338 325 318 315 328 301 272 278 283 297 279 220 230 173 171 286 252 267 256 280 318 31 39 317 282 303 287 26 185 125 154 118 158 260 256 123 117 69 95 68
340 340 342 342 344 341 340 335 333 322 317 326 315 274 272 291 280 244 196 203 180 151 282 275 258 259 274 243 146 285 266 284 251 134 247 56 32 143 85 185 257 162 149 137 127 126 187
341 340 340 342 340 338 337 334 331 325 321 312 317 270 268 258 257 217 193 207 173 110 60 259 256 248 286 261 304 292 270 241 131 181 183 54 9 315 154 185 197 64 134 114 107 94 27
336 339 337 339 333 334 335 336 330 330 316 299 322 270 254 233 233 202 177 186 142 106 21 247 192 256 312 120 309 264 247 241 147 151 154 117 299 118 118 155 202 136 104 103 106 87 269
331 332 333 332 333 330 332 330 332 330 318 307 304 261 240 221 219 203 173 159 123 47 265 180 159 235 325 191 270 290 216 251 342 45 51 168 146 28 58 276 44 149 105 52 63 114 103
327 329 328 331 331 329 330 327 323 323 323 291 338 255 230 203 218 187 164 163 57 142 315 236 193 175 205 318 311 297 335 42 174 104 20 51 50 87 76 127 143 123 74 95 84 49 128
324 325 327 327 330 330 324 325 327 322 315 273 298 224 209 190 186 177 160 73 127 209 206 229 135 113 139 6 281 301 351 22 25 74 79 66 53 13 338 73 134 86 165 127 93 90 318
317 318 320 323 325 323 322 326 329 325 314 290 275 203 192 183 177 175 188 99 202 201 186 155 92 113 272 309 188 342 90 106 266 62 124 114 28 319 123 56 117 124 342 119 110 69 75
316 315 315 316 316 316 316 324 328 328 332 233 228 187 192 184 180 179 115 197 220 212 176 119 160 161 176 210 129 306 25 270 100 162 173 173 83 13 303 102 293 183 159 84 10 122 229
314 313 315 314 310 309 313 321 324 327 328 304 174 173 189 184 174 189 183 206 234 227 187 141 193 158 161 170 179 207 355 325 77 22 74 115 85 293 28 23 28 12 39 59 94 86 148
312 313 314 311 308 309 312 318 320 320 326 330 271 249 178 172 183 204 177 176 202 173 187 166 160 125 152 155 158 212 148 208 30 46 51 11 104 70 65 315 326 126 77 100 109 205 103
311 315 316 314 313 314 314 317 319 311 318 298 241 245 177 173 203 194 146 146 221 161 177 152 205 183 152 158 134 180 117 349 172 63 121 177 28 55 354 353 1 47 28 90 97 80 189
310 312 314 314 313 314 312 314 313 310 296 288 183 188 167 203 256 169 141 195 169 207 156 148 193 152 125 131 99 175 125 32 108 100 75 96 98 148 176 197 140 192 172 136 111 102 182
311 313 314 315 314 313 314 313 311 313 284 202 190 220 179 176 203 180 165 173 178 164 188 173 90 198 129 112 91 120 129 105 76 50 59 87 126 121 143 119 135 179 206 189 176 171 153
312 314 314 314 313 314 311 310 315 317 297 201 172 187 174 280 175 158 217 207 178 154 134 181 146 167 125 146 174 180 123 137 188 356 84 27 164 130 74 16 49 198 187 190 231 194 257
313 314 314 313 315 313 313 311 313 313 296 185 172 147 125 177 163 174 198 197 184 136 50 155 146 113 105 176 165 154 126 140 148 146 122 92 123 79 322 333 344 326 239 191 183 187 158
313 314 314 315 314 316 316 308 314 313 193 142 154 131 158 181 190 182 173 205 175 142 122 68 148 111 137 115 101 82 86 83 65 40 130 126 94 82 174 3 27 240 235 187 200 150 214
314 315 314 315 315 318 313 319 320 300 200 179 152 144 98 126 148 163 165 194 107 94 80 95 83 134 142 96 66 60 11 27 14 31 38 89 113 92 124 196 292 261 202 181 182 195 228
315 315 316 317 317 319 313 329 326 193 176 163 156 136 108 152 341 60 141 178 118 100 52 75 95 137 133 80 88 135 182 162 186 18 42 76 78 96 176 129 227 246 261 234 88 281 201
317 316 318 318 318 315 315 331 164 189 187 175 139 121 71 110 42 90 101 144 132 100 94 114 119 87 70 92 120 162 200 165 152 161 163 97 80 167 184 242 291 248 216 130 95 253 162
316 318 319 319 318 318 313 321 166 183 189 181 158 137 40 99 58 89 111 117 123 132 131 155 109 46 50 81 128 194 134 209 115 165 182 151 174 206 149 213 262 179 110 168 197 143 163
318 321 322 323 319 320 316 180 171 177 189 190 164 139 122 98 111 94 89 96 115 125 135 139 125 137 151 94 136 118 121 111 154 199 359 178 184 182 181 212 268 234 276 255 169 161 170